Flag for Switzerland Weather past 2 weeks in Basel, Basel-Stadt, Switzerland

Now
59 °F

Partly sunny.


Feels Like: 60 °F
Forecast: 41 / 60 °F
Wind: 3 mph from Southwest

Location: Bale-Mulhouse

Current Time: Oct 25, 2014 at 2:57:57 PM

Latest Report: Oct 25, 2014 at 2:00 PM


Visibility: 9 mi

Pressure: 30.14 "Hg

Humidity: 67%

Dew point: 48 °F

Location of BaselLocation

Historic Weather in Basel — Graph

°F

Basel temperature yesterday

Maximum temperature yesterday: 55 °F (at 5:00 PM)
Minimum temperature yesterday: 33 °F (at 8:00 AM)
Average temperature yesterday: 45 °F

Past Weeks' High & Low Weather Summary

 TemperatureHumidityPressure
High76 °F (Oct 19, 4:00 PM)100% (Oct 24, 9:00 AM)30.33 "Hg (Oct 24, 9:00 AM)
Low33 °F (Oct 24, 8:00 AM)44% (Oct 23, 4:00 PM)29.74 "Hg (Oct 15, 5:00 PM)
Average56 °F85%30.02 "Hg
* Reported Oct 10 1:00 PM — Oct 25 1:00 PM, Basel, Weather by CustomWeather, © 2014

Note: Actual official high and low records may vary slightly from our data, if they occured in-between our weather recording intervals... More about our weather records

Advertising

Basel weather history for previous 24 hours

 ConditionsComfort  
Time TempWeatherWind HumidityBarometerVisibility
1:00 PM
Oct 25
55 °FOvercast.3 mph77%30.16 "Hg9 mi
12:00 PM53 °FOvercast.6 mph82%30.16 "Hg6 mi
11:00 AM50 °FLight rain. Overcast.5 mph89%30.17 "Hg5 mi
10:00 AM50 °FLight rain. Overcast.2 mph85%30.16 "Hg6 mi
9:00 AM48 °FOvercast.2 mph86%30.15 "Hg7 mi
8:00 AM48 °FOvercast.3 mph88%30.14 "Hg6 mi
7:00 AM47 °FOvercast.2 mph88%30.13 "Hg8 mi
6:00 AM47 °FOvercast.1 mph86%30.14 "Hg9 mi
5:00 AM48 °FOvercast.3 mph85%30.12 "Hg11 mi
4:00 AM49 °FOvercast.5 mph83%30.12 "Hg9 mi
3:00 AM48 °FOvercast.3 mph84%30.12 "Hg11 mi
2:00 AM48 °FOvercast.3 mph84%30.12 "Hg11 mi
1:00 AM48 °FOvercast.2 mph84%30.12 "Hg10 mi
12:00 AM49 °FOvercast.3 mph82%30.13 "Hg9 mi
11:00 PM
Oct 24
49 °FOvercast.2 mph79%30.14 "Hg9 mi
10:00 PM50 °FOvercast.3 mph78%30.14 "Hg11 mi
9:00 PM49 °FOvercast.7 mph79%30.14 "Hg12 mi
8:00 PM49 °FOvercast.3 mph77%30.14 "Hg12 mi
7:00 PM51 °FOvercast.8 mph73%30.12 "Hg16 mi
6:00 PM52 °FPartly sunny.7 mph68%30.12 "Hg16 mi
5:00 PM55 °FScattered clouds.9 mph63%30.12 "Hg16 mi
4:00 PM55 °FPassing clouds.12 mph62%30.13 "Hg16 mi
3:00 PM54 °FPassing clouds.10 mph65%30.15 "Hg16 mi
2:00 PM54 °FPassing clouds.12 mph65%30.17 "Hg9 mi
Weather by CustomWeather, © 2014

See weather overviewHow to use our weather pages